EHI
0 1 1 1 1 1 2 4 5 4 4 4 5 6 6 3 2 2 1 0 1 0 0 0 0 0 0 1 1 1 1 0 0 0 0 0 0 0 0 0 0 0 0
1 2 2 2 2 2 4 5 6 5 5 5 5 6 5 3 2 1 1 0 1 0 0 0 0 0 0 2 2 2 1 1 0 0 0 0 0 0 0 0 0 0 0
2 3 3 4 5 4 5 5 5 5 6 5 5 5 4 3 2 1 1 0 0 0 0 1 0 0 1 2 3 3 2 1 0 0 0 0 0 0 0 0 0 0 0
3 3 4 5 6 5 4 4 4 3 4 4 4 3 3 2 2 2 2 1 0 0 0 0 0 1 2 3 3 2 1 0 0 0 0 0 0 0 0 0 0 0 0
2 2 4 5 6 5 4 4 3 2 2 2 2 1 1 1 1 2 2 1 0 0 0 0 0 1 2 3 2 2 1 0 0 0 0 0 0 0 0 0 0 0 0
1 1 2 4 4 3 3 2 2 2 1 1 1 0 0 0 1 2 3 1 0 0 0 0 0 0 1 2 1 1 1 0 0 0 0 0 0 0 0 0 0 0 0
0 0 1 2 3 3 1 1 1 1 0 0 0 0 0 0 0 1 3 2 0 0 0 0 0 0 0 0 0 0 0 0 0 0 0 0 0 0 0 0 0 0 0
0 0 0 1 3 3 1 0 0 0 0 0 0 0 0 0 0 0 1 1 0 0 0 0 0 0 0 0 0 0 0 0 0 0 0 0 0 0 0 0 0 0 0
0 0 0 1 2 2 1 0 0 0 0 0 0 0 0 0 0 0 0 0 0 0 0 0 0 0 0 0 0 0 0 0 0 0 0 0 0 0 0 0 0 0 0
0 0 0 0 1 1 1 0 0 0 0 0 0 1 0 0 0 0 0 0 0 0 0 0 0 0 0 0 0 0 0 0 0 0 0 0 0 0 0 0 0 0 0
0 0 0 0 0 0 0 0 0 0 0 0 1 2 1 0 0 0 0 0 0 1 1 0 0 0 0 0 0 0 0 0 0 0 0 0 0 0 0 0 0 0 0
0 0 0 0 0 0 0 1 0 0 0 0 0 1 0 0 0 0 0 0 0 1 1 0 0 0 0 0 0 0 0 0 0 0 0 0 0 0 0 1 1 0 1
0 0 0 0 0 0 0 0 0 0 0 0 0 0 0 0 0 0 0 0 0 1 1 0 0 0 0 0 0 0 0 0 0 0 0 0 0 0 1 2 2 1 1
0 0 0 0 0 0 0 0 0 0 0 0 0 0 0 0 0 0 0 0 0 0 0 0 0 0 0 0 0 0 0 0 0 0 0 0 0 0 1 2 3 2 1
0 0 0 0 0 0 0 0 0 0 0 0 0 0 0 0 0 0 0 0 0 0 0 0 0 0 0 0 0 0 0 0 0 0 0 0 0 0 1 2 2 2 1
0 0 1 1 0 0 0 0 0 0 0 0 0 0 0 0 0 0 0 0 0 0 0 0 0 0 0 0 0 0 0 0 0 0 0 0 1 2 2 2 2 2 1
0 1 2 1 0 0 0 0 0 0 0 0 0 0 0 0 0 0 0 0 0 0 0 0 0 0 0 0 0 0 0 0 0 0 0 0 1 2 4 4 4 4 4
0 1 2 2 1 1 0 0 0 0 0 0 0 0 0 0 0 0 0 0 0 0 0 0 0 0 0 0 0 0 0 0 0 0 0 0 0 1 3 3 4 5 5
2 2 2 2 2 1 0 0 0 0 0 0 0 0 0 0 0 0 0 0 0 0 0 0 0 0 0 0 0 0 0 0 0 0 0 0 0 0 1 1 2 2 2
3 2 2 1 1 1 0 0 0 0 0 0 0 0 0 0 0 0 0 0 0 0 0 0 0 0 0 0 0 0 0 0 0 0 0 0 0 0 0 0 0 0 0
4 3 2 1 1 1 1 0 0 0 0 0 0 0 0 1 1 0 0 0 0 0 0 0 0 0 0 0 0 0 0 0 0 0 0 0 0 0 0 0 0 0 0
6 6 4 2 3 3 3 2 1 0 0 0 0 0 1 2 2 1 0 0 0 0 0 0 0 0 0 0 0 0 0 0 0 0 0 0 0 0 0 0 0 0 0
8 8 7 5 6 7 7 7 4 2 2 2 1 1 1 2 3 2 1 0 0 0 0 0 0 0 0 0 0 0 0 0 0 0 0 0 0 0 0 0 0 0 0
10 10 10 10 9 8 9 10 9 6 5 4 4 2 2 3 3 3 1 1 2 1 0 0 0 0 0 0 0 0 0 0 0 0 0 0 0 0 0 0 0 0 0
14 14 14 14 11 8 8 11 11 8 6 5 4 4 4 5 4 4 3 3 3 2 1 0 0 0 0 0 0 0 0 0 0 0 0 0 0 0 0 0 0 0 0
18 17 17 15 10 7 8 10 10 9 7 5 4 5 6 6 6 5 5 5 4 3 2 1 0 0 0 0 0 0 0 0 0 0 0 0 0 0 0 0 0 0 0
Wind_Speed
0 0 4 6 8 9 10 11 13 14 14 15 15 16 16 16 16 15 16 16 16 16 16 16 16 15 15 15 15 14 14 14 14 14 14 14 13 13 13 13 12 9 13
2 1 5 7 8 9 10 11 12 14 14 14 14 14 15 15 15 15 15 15 16 16 15 15 15 15 15 14 14 14 13 13 13 13 13 12 12 12 12 12 11 8 12
3 2 4 7 8 10 11 12 13 14 14 14 14 14 14 14 14 14 14 15 15 15 15 15 15 15 14 14 13 12 12 12 12 12 11 7 8 11 11 11 11 12 12
3 2 4 8 9 10 11 12 13 13 13 14 14 14 14 14 14 13 13 14 14 14 14 14 14 14 14 13 13 12 11 11 11 11 6 5 5 10 11 10 11 11 11
3 2 4 8 9 10 10 11 12 12 12 12 13 13 13 13 13 13 13 13 13 13 13 13 13 13 13 12 12 11 10 10 10 8 5 4 4 8 10 10 10 11 11
3 2 4 8 9 9 10 10 11 12 11 12 12 12 12 12 12 12 12 12 12 12 12 12 12 12 12 11 10 10 9 9 8 6 5 4 4 7 9 9 10 10 10
3 2 3 7 8 8 9 10 10 11 11 12 12 11 11 11 11 11 11 11 11 11 11 11 11 11 11 10 9 8 8 8 7 5 4 4 4 7 9 9 9 10 10
3 2 2 6 8 8 8 9 9 9 10 10 10 10 10 10 10 10 10 10 11 11 11 11 10 10 10 9 8 7 7 8 7 6 5 4 6 7 9 8 9 10 9
3 2 2 2 4 7 8 8 8 8 9 9 9 9 9 9 9 9 9 10 11 11 10 10 9 9 8 7 6 6 7 7 5 4 5 4 6 8 9 9 9 9 9
3 2 2 2 2 2 3 6 7 8 8 8 7 8 8 8 8 8 8 9 10 10 10 9 8 8 6 6 5 6 7 6 4 4 3 4 8 9 9 9 9 9 9
2 1 1 2 2 2 1 3 5 6 6 6 5 7 6 3 3 4 7 8 9 9 9 8 7 6 5 4 5 5 5 3 3 2 2 5 8 9 9 9 9 9 10
3 2 2 2 2 1 1 2 2 2 3 3 3 4 3 3 2 3 4 7 8 8 7 7 6 5 4 2 3 4 2 3 3 2 3 6 8 8 9 9 9 9 9
4 3 3 3 2 2 1 1 1 1 2 2 3 3 3 3 2 2 2 2 3 4 3 4 3 2 2 2 2 2 2 2 2 2 3 7 7 9 9 9 10 10 10
4 4 3 3 3 2 2 1 2 1 1 1 2 3 3 2 1 1 1 1 1 2 2 2 1 1 1 2 2 2 1 1 2 2 3 8 8 9 10 10 10 10 10
5 5 4 4 4 3 2 2 2 2 2 2 2 2 3 2 2 1 1 1 1 1 2 1 1 1 0 0 1 1 1 2 3 3 3 7 8 8 9 10 10 11 11
7 6 5 5 4 4 3 2 2 2 2 2 2 2 3 3 2 2 1 1 1 1 2 2 1 1 0 0 1 1 1 2 3 3 3 5 8 8 9 10 11 11 11
7 6 6 5 4 4 4 3 2 2 2 2 2 2 3 3 3 2 2 1 1 1 2 1 1 1 1 1 1 1 1 2 3 4 4 3 4 8 9 10 10 11 12
6 6 6 6 5 5 4 3 2 2 3 2 2 2 3 3 3 3 2 2 2 1 1 1 1 1 1 1 1 1 1 2 3 4 3 4 4 4 6 10 11 11 12
8 7 6 5 6 5 4 3 2 2 2 2 2 3 3 4 4 3 2 2 2 2 2 2 2 2 2 1 1 1 1 2 3 3 4 4 4 4 4 6 10 11 12
7 7 6 5 5 5 3 2 1 1 1 2 2 3 4 4 4 4 2 2 2 2 2 2 2 1 2 2 1 1 1 2 2 3 4 3 3 4 4 4 4 6 10
7 7 7 6 5 5 3 3 2 2 2 2 2 3 4 4 4 4 3 3 3 3 3 3 2 2 1 1 1 1 2 2 2 2 2 2 3 4 4 4 3 3 4
9 8 8 7 6 6 4 3 2 2 2 2 1 2 3 4 4 4 4 3 3 3 3 3 2 2 1 2 2 1 2 3 2 1 1 2 3 3 4 4 4 4 4
10 11 10 9 8 7 5 3 2 2 1 1 1 1 2 4 4 4 4 4 3 3 3 3 3 4 2 1 2 2 2 2 2 2 1 1 2 2 3 3 4 5 5
12 10 9 9 8 7 6 5 5 4 3 3 2 2 2 3 3 4 4 4 4 3 3 3 3 3 3 2 1 1 2 2 1 2 2 1 2 3 3 3 3 4 4
10 9 8 8 7 7 7 7 6 4 3 2 2 2 2 1 2 3 4 4 4 3 4 3 3 3 3 3 3 2 2 1 1 2 2 2 2 2 2 3 2 2 3
8 8 8 8 8 8 8 7 7 6 5 4 3 3 2 1 1 2 3 3 4 3 4 4 4 4 3 3 2 2 2 2 2 2 3 2 2 2 1 1 2 2 2
Wind_Direction
292 98 115 109 110 107 101 101 106 110 114 116 119 121 121 122 123 124 124 125 126 124 122 121 122 122 122 121 120 120 119 119 121 122 121 121 120 119 119 118 115 115 116
146 131 124 118 114 111 107 107 112 116 116 118 120 121 122 123 124 123 122 124 125 127 127 125 125 124 123 122 120 119 118 119 121 123 123 122 122 121 121 121 123 123 122
104 99 123 121 117 113 111 109 114 121 122 123 123 125 125 126 126 126 125 126 127 128 128 127 125 124 123 122 120 118 119 119 120 120 114 111 120 126 128 128 128 126 125
109 94 125 123 120 117 114 113 115 119 123 126 126 127 127 127 128 130 129 129 129 129 129 127 126 125 125 124 123 122 121 121 121 118 106 111 123 132 133 132 130 131 129
106 99 135 125 122 119 117 116 118 119 122 126 127 128 128 129 131 132 132 132 132 131 131 128 127 126 125 125 125 124 123 124 122 112 107 106 111 136 138 137 136 137 134
105 98 131 126 124 122 121 120 121 121 122 129 130 129 131 133 134 134 135 134 132 131 128 128 128 127 124 124 125 126 128 131 120 116 117 121 127 144 144 144 142 140 138
111 98 128 129 129 126 124 123 123 123 124 130 133 134 136 137 138 138 138 137 135 131 128 127 128 127 127 128 128 131 138 141 127 127 132 136 148 152 146 144 142 140 141
115 103 113 135 134 134 132 129 127 126 125 127 134 138 139 141 143 141 140 140 135 132 129 128 129 130 130 130 132 137 142 140 137 141 144 145 154 153 150 147 145 144 144
98 95 82 97 126 135 135 135 132 131 129 129 133 138 144 145 145 142 142 140 137 134 133 133 132 130 130 129 132 135 139 146 134 145 154 150 158 159 158 157 154 150 149
91 88 90 78 77 90 123 137 134 131 129 130 132 137 143 145 145 144 140 141 139 138 137 136 134 128 126 127 131 136 143 140 137 148 149 164 171 171 168 166 165 162 160
135 100 103 99 87 85 110 141 132 130 128 124 121 128 123 97 100 124 140 144 141 141 141 139 135 132 128 119 123 130 126 125 143 149 157 179 182 182 178 175 175 174 172
182 180 162 150 138 131 150 98 84 93 96 87 82 91 90 95 104 121 139 150 148 145 142 136 130 124 106 93 104 109 109 137 148 164 184 189 191 191 188 183 183 183 182
185 186 179 174 160 154 129 115 95 86 85 88 94 97 94 85 83 81 77 112 119 125 107 111 105 91 96 104 97 104 129 146 163 182 196 201 203 201 196 191 190 192 191
173 192 189 181 172 170 155 140 130 125 118 118 119 120 112 103 90 85 85 92 92 96 99 90 102 104 102 109 121 136 153 171 180 190 208 211 214 211 206 201 200 199 196
180 190 191 184 183 178 169 178 163 158 156 152 141 140 139 137 136 123 114 107 116 121 126 130 127 115 99 69 111 155 192 204 202 199 210 219 222 218 215 212 207 205 204
186 188 180 183 185 174 177 181 174 170 166 160 166 170 161 154 155 155 158 151 154 155 152 155 166 169 226 246 292 258 231 224 216 209 211 223 228 223 222 218 212 211 211
187 182 175 178 173 175 186 193 181 179 172 173 181 180 173 169 168 165 167 176 187 169 155 148 155 148 216 238 275 272 246 230 222 215 214 218 226 229 227 223 219 218 219
177 176 182 182 172 177 181 181 173 174 179 187 180 179 184 181 176 168 175 193 183 162 159 165 162 155 202 230 254 268 260 249 238 223 219 222 222 230 233 229 226 224 226
179 176 179 180 172 175 170 159 164 163 182 191 180 178 187 185 182 175 187 194 173 167 177 191 166 167 191 219 239 254 261 253 245 233 227 228 225 227 232 240 234 230 231
177 174 178 177 175 163 149 137 138 160 197 198 191 189 189 188 184 176 188 191 172 172 183 181 171 172 189 202 239 285 284 264 243 236 236 231 227 228 227 231 235 238 236
176 177 181 180 178 160 153 162 166 198 200 202 204 195 193 194 185 177 191 187 180 186 192 177 164 171 185 154 106 337 320 287 255 247 243 237 236 232 226 225 226 229 240
186 188 188 188 183 178 176 169 164 164 180 192 199 190 192 194 190 191 187 191 186 180 178 172 165 159 183 161 148 122 331 330 320 284 253 234 238 233 234 234 224 226 234
192 193 195 191 187 183 170 138 117 101 87 128 175 193 200 197 192 189 186 185 184 177 188 191 181 174 186 195 177 163 175 242 300 311 276 253 242 232 240 242 236 233 231
198 193 191 186 185 181 170 167 168 176 191 200 190 194 200 192 190 188 186 182 181 182 192 202 191 187 176 192 198 211 199 179 199 303 310 288 266 251 250 248 245 236 230
191 187 187 181 184 182 180 182 181 190 197 181 167 178 197 199 196 194 184 175 181 190 200 200 190 193 189 188 185 182 188 192 189 208 277 304 305 268 252 245 243 240 229
178 179 179 181 190 185 185 187 189 192 188 179 188 190 199 202 207 202 183 179 188 197 202 200 196 198 201 197 191 186 181 181 193 195 232 265 283 286 283 261 242 238 236